Location: Vihti�l�
(61.3833°N, 23.0667°E)
Time: 04:19:00
(UTC+00:00)

CZ-2C R/B - Pass Details

Date: 29 November 2020
Orbit: 784 x 870 km, 98.2° (Epoch: 19 January)

Event Time Altitude Azimuth Distance (km) Brightness Sun altitude
Rises 04:50:36 0° 169° (S) 3,399 6.3 -14.8°
Reaches altitude 10° 04:53:00 10° 172° (S) 2,455 5.5 -14.5°
Maximum altitude 04:58:26 68° 255° (WSW) 890 2.6 -13.9°
Drops below altitude 10° 05:03:46 10° 339° (NNW) 2,414 4.7 -13.3°
Enters shadow 05:05:01 - 341° (NNW) 2,902 5.1 -13.2°
